Location: Mahannah Oil Field
(37.4664°N, 96.6003°W)
Time: 04:18:19
(UTC+00:00)

deb Explorer IX - Pass Details

Date: 23 June 2021
Orbit: 544 x 1093 km, 38.8° (Epoch: 02 August)

Event Time Altitude Azimuth Distance (km) Brightness Sun altitude
Exits shadow 09:09:09 12° 155° (SSE) 1,885 ? -18.4°
Maximum altitude 09:09:51 13° 146° (SE) 1,843 ? -18.3°
Drops below altitude 10° 09:11:49 10° 120° (ESE) 1,961 ? -18.0°
Sets 09:15:13 0° 90° (E) 2,783 ? -17.6°
